{"data":{"norad_id":63769,"epoch":"2026-09-20T09:21:50.163552Z","epoch_age_seconds":159325,"freshness":"FRESH","line1":"1 63769U 25089U   26263.39016393  .00006525  00000+0  24638-3 0  9991","line2":"2 63769  43.0029  25.7384 0001306 263.3302  96.7401 15.27584439 78683","mean_motion":15.27584439,"eccentricity":0.0001306,"inclination_deg":43.0029,"raan_deg":25.7384,"arg_perigee_deg":263.3302,"mean_anomaly_deg":96.7401,"bstar":0.00024638,"rev_number":7868,"period_min":94.266474784377,"perigee_km":482.1397349407,"apogee_km":483.93187327714,"semimajor_km":6861.1728041089,"source":"CELESTRAK","updated_at":"2026-09-21T09:00:35.096442Z"}}